Regional Weather Roundup
Issued by NWS

Home | Current Version | Previous Version | Text Only | Print | Product List | Glossary Off
Versions: 1 2 3 4 5 6 7 8 9 10 11 12 13 14 15 16 17 18 19 20 21 22 23 24 25 26 27 28 29 30 31 32 33 34 35 36 37 38 39 40 41 42 43 44 45 46 47 48 49 50

000
ASUS43 KMKX 050600
RWRWI

WISCONSIN REGIONAL WEATHER ROUNDUP
NATIONAL WEATHER SERVICE MILWAUKEE/SULLIVAN WI
100 AM CDT SAT SEP 05 2015

NOTE: "FAIR" INDICATES FEW OR NO CLOUDS BELOW 12,000 FEET WITH NO
SIGNIFICANT WEATHER AND/OR OBSTRUCTIONS TO VISIBILITY.

WIZ001-002-006>008-014>016-023>028-050700-
NORTHWEST WISCONSIN

CITY           SKY/WX    TMP DP  RH WIND       PRES   REMARKS
SUPERIOR ARPT  PTCLDY    59  57  94 CALM      29.98R
ASHLAND        PTCLDY    63  63 100 CALM      30.01R
6HR MIN TEMP:  62; 6HR MAX TEMP:  68;

HAYWARD        MOCLDY    72  66  81 VRB6      30.02R
6HR MIN TEMP:  72; 6HR MAX TEMP:  79;

SIREN          PTCLDY    74  70  86 SE7       29.98R
CUMBERLAND     MOCLDY    70  66  88 SE5       30.01R
RICE LAKE      CLEAR     71  66  85 SE10      30.02R
CHETEK         CLEAR     70  67  90 SE5       30.01S
LADYSMITH      MOCLDY    70  66  89 SE5       30.05S
EAU CLAIRE     NOT AVBL
MENOMONIE      PTCLDY    73  71  93 SE6       29.99R
NEW RICHMOND   MOCLDY    73  71  94 SE3       29.98R
OSCEOLA        PTCLDY    74  74 100 E5        29.99S
$$

WIZ003>005-009-010-017-018-050700-
NORTH CENTRAL WISCONSIN

CITY           SKY/WX    TMP DP  RH WIND       PRES   REMARKS
MANITOWISH WTR CLEAR     67  67 100 SE6       30.08R
ARBOR VITAE    PTCLDY    67  65  93 SE6       30.08S
WOODRUFF       PTCLDY    67  65  93 SE6       30.08S
RHINELANDER    MOCLDY    65  63  93 CALM      30.10R
6HR MIN TEMP:  65; 6HR MAX TEMP:  76;

EAGLE RIVER    PTCLDY    64  64 100 CALM      30.09S FOG
LAND O LAKES   CLEAR     64  64  98 CALM      30.10S FOG
PHILLIPS       PTCLDY    68  66  94 SE6       30.05S
6HR MIN TEMP:  68; 6HR MAX TEMP:  78;

TOMAHAWK       PTCLDY    64  62  95 CALM      30.08S FOG
MEDFORD        PTCLDY    66  66  99 SE5       30.06S FOG
MERRILL        PTCLDY    65  65 100 CALM      30.08S
6HR MIN TEMP:  65; 6HR MAX TEMP:  77;

$$

WIZ029-030-035-036-043>047-050700-
CENTRAL WISCONSIN

CITY           SKY/WX    TMP DP  RH WIND       PRES   REMARKS
WAUSAU         PTCLDY    67  65  93 SE7       30.06R FOG
6HR MIN TEMP:  66; 6HR MAX TEMP:  77;

MOSINEE        CLEAR     64  64 100 CALM      30.08R FOG
MARSHFIELD     MOCLDY    68  63  84 E5        30.06S HAZE
6HR MIN TEMP:  68; 6HR MAX TEMP:  77;

STEVENS POINT  CLEAR     64  64  98 CALM      30.07R FOG
WAUPACA        CLEAR     67  67  99 CALM      30.06S FOG
WAUTOMA        NOT AVBL
WISC RAPIDS    MOCLDY    69  64  84 SE5       30.07R
6HR MIN TEMP:  68; 6HR MAX TEMP:  76;

CAMP DOUGLAS   NOT AVBL
$$

WIZ011>013-019>022-031-037>040-048>050-050700-
NORTHEAST WISCONSIN

CITY           SKY/WX    TMP DP  RH WIND       PRES   REMARKS
ANTIGO         CLOUDY    64  64 100 SE6       30.09F FOG
SHAWANO        NOT AVBL
OCONTO         PTCLDY    61  61 100 CALM      30.07R
STURGEON BAY   MOCLDY    66  63  88 W5        30.09R VSB 1
6HR MIN TEMP:  66; 6HR MAX TEMP:  70;

GREEN BAY      FOG       62  61  96 CALM      30.07R VSB 3/4
6HR MIN TEMP:  62; 6HR MAX TEMP:  73;

MANITOWOC      NOT AVBL
APPLETON       MOCLDY    66  64  94 CALM      30.05S
CLINTONVILLE   FOG       63  63 100 CALM      30.06S VSB 1/2
OSHKOSH        PTCLDY    64  62  93 CALM      30.06R
6HR MIN TEMP:  64; 6HR MAX TEMP:  72;

$$

WIZ032>034-041-042-053>061-050700-
SOUTHWEST WISCONSIN

CITY           SKY/WX    TMP DP  RH WIND       PRES   REMARKS
LA CROSSE      MOCLDY    77  72  84 E7        29.99R
6HR MIN TEMP:  77; 6HR MAX TEMP:  85;

SPARTA         CLEAR     70  67  89 E5        30.02F
VIROQUA        MOCLDY    72  72 100 SE8       30.03F
BOSCOBEL       PTCLDY    73  72  96 CALM      30.01F FOG
6HR MIN TEMP:  72; 6HR MAX TEMP:  81;

PRAIRIE DU CHI CLOUDY    73  71  92 S5        30.01S
PLATTEVILLE    MOCLDY    75  73  91 E7        30.04R
$$

WIZ056-057-062-063-064-067-068-050700-
SOUTH CENTRAL WISCONSIN

CITY           SKY/WX    TMP DP  RH WIND       PRES   REMARKS
REEDSBURG      PTCLDY    69  68  95 CALM      30.04S
BARABOO/DELLS  CLEAR     69  66  90 E3        30.05R
LONE ROCK      NOT AVBL
MINERAL POINT  PTCLDY    73  72  94 SE8       30.05S FOG
MADISON        CLEAR     68  65  90 SE5       30.05S
6HR MIN TEMP:  68; 6HR MAX TEMP:  79;

MIDDLETON      CLEAR     70  68  92 SE6       30.06S
WATERTOWN      PTCLDY    65  65 100 CALM      30.06R
MONROE         PTCLDY    68  68 100 E5        30.05S FOG
JANESVILLE     CLEAR     68  66  94 E5        30.05S
$$

WIZ051-052-058>065-066-070>072-050700-
SOUTHEAST WISCONSIN

CITY           SKY/WX    TMP DP  RH WIND       PRES   REMARKS
MILWAUKEE      FOG       66  65  96 CALM      30.06S VSB 1/2
6HR MIN TEMP:  65; 6HR MAX TEMP:  68;

WAUKESHA       CLOUDY    63  63 100 CALM      30.08S FOG
MILWAUKEE/TIMM CLOUDY    64  63  94 CALM      30.07S FOG
RACINE         MOCLDY    68  64  87 SE3       30.08S
6HR MIN TEMP:  67; 6HR MAX TEMP:  69;

BURLINGTON     CLOUDY    65  64  97 CALM      30.06F FOG
KENOSHA        PTCLDY    68  65  90 S5        30.07S
6HR MIN TEMP:  66; 6HR MAX TEMP:  69;

FOND DU LAC    PTCLDY    65  64  97 SE5       30.07R
6HR MIN TEMP:  65; 6HR MAX TEMP:  73;

SHEBOYGAN      FOG       64  64 100 SW3       30.07S VSB 1/2
6HR MIN TEMP:  62; 6HR MAX TEMP:  69;

WEST BEND      FOG       63  63 100 CALM      30.07S VSB 1/2
JUNEAU         MOCLDY    65  64  95 SE3       30.08R FOG
$$

LSZ147-162-050700-
LAKE SUPERIOR

STATION/POSITION TIME  TEMP    WIND        PRES    WAVE
                       AIR SEA DIR/SP/G            HT/PER
                 (UTC) (F)     (DEG/KT/KT) (MB)    (FT/S)
W MID LAKE BUOY  0450   63 57  120/  8/ 10 1016.0R   1/ 4
DEVILS ISLAND    0500   66      30/  2/  3 1015.2R
PORT WING        0500   53      10/  4/  5 1015.2S
SAXON HARBOR     0500   74     180/  2/  6 1015.2R
$$

LMZ867-665-643>646-050700-
LAKE MICHIGAN

STATION/POSITION TIME  TEMP    WIND        PRES    WAVE
                       AIR SEA DIR/SP/G            HT/PER
                 (UTC) (F)     (DEG/KT/KT) (MB)    (FT/S)
CHAMBERS ISLAND  0500   67      CALM  /  2 1017.9S
N MID LAKE BUOY  0450   68 67  110/  8/  8 1017.0F   1
NORTHPORT PIER   0500   68      CALM  /  2 1017.6S
SISTER BAY       0511   66        CALM       N/A
ALGOMA LAKESHORE 0514             CALM       N/A
KEWAUNEE LAKESHO 0500   65      CALM  /  2 1016.9F
SHEBOYGAN LAKESH 0500   63     250/  1/  1 1018.2F
PORT WASHINGTON  0500   61      CALM  /  1 1019.0R
ATWATER BUOY     0500   61 59  320/  2/  2 1019.5S
MILWAUKEE LAKESH 0510   64     120/  2/  2   N/A
S MID LAKE BUOY  0450   69 71   CALM  /  2 1017.6S
KENOSHA   LAKESH 0500   65     360/  2/  3 1017.9S
$$

TC  - TEMPERATURE IN CELSIUS
VSB - VISIBILITY IN STATUTE MILES
WCI - WIND CHILL INDEX
HX  - HEAT INDEX




USA.gov is the U.S. government's official web portal to all federal, state and local government web resources and services.